Location: Boleita
(10.4833°N, 66.8167°W)
Time: 02:08:51
(UTC+00:00)

Cosmos 2084 Rocket - Pass Details

Date: 08 November 2025
Orbit: 549 x 566 km, 62.8° (Epoch: 09 December)

Event Time Altitude Azimuth Distance (km) Brightness Sun altitude
Exits shadow 09:33:48 12° 319° (NW) 1,727 5.4 -11.8°
Maximum altitude 09:37:29 47° 247° (WSW) 745 3.7 -10.9°
Drops below altitude 10° 09:41:29 10° 172° (S) 1,844 6.3 -10.0°
Sets 09:43:45 0° 166° (SSE) 2,736 7.3 -9.4°
